Location: Casilda
(33.0440°S, 61.1680°W)
Time: 04:19:37
(UTC-03:00)

ISS - Pass Details

Date: 16 September 2017
Orbit: 401 x 407 km, 51.6° (Epoch: 23 September)

Event Time Altitude Azimuth Distance (km) Brightness Sun altitude
Rises 20:27:21 0° 249° (WSW) 2,335 1.6 -19.6°
Reaches altitude 10° 20:30:24 10° 280° (W) 1,466 0.0 -20.2°
Maximum altitude 20:31:51 12° 306° (NW) 1,326 -0.7 -20.5°
Drops below altitude 10° 20:33:17 10° 332° (NNW) 1,458 -0.8 -20.8°
Enters shadow 20:34:20 - 347° (NNW) 1,693 -0.7 -21.0°
